FLOCK 4V-21 (46596 NORAD) Tracking and Keplerian Element Data

This shows tracking and keplerian element data for the satellite.

Feedback or suggestion? Click here.




ElementValue
Catalog46596
NameFLOCK 4V-21
Epoch Orbit246
Epoch Day304.79103772
Epoch Year2020
RAAN16.8634
Inclination97.4569
Eccentricity0.0005091
Argument of Perigee38.8874
Mean Anonmoly321.2724
Mean Motion15.15687278
Decay Rate8.15E-06
L11 46596U 20061BK 20304.79103772 .00000815 00000-0 46254-4 0 9993
L22 46596 97.4569 16.8634 0005091 38.8874 321.2724 15.15687278 2466

Live tracking and technical data element details for FLOCK 4V-21 (NORAD 46596). FLOCK 4V-21 can be tracked NOW for your location showing map with azimuth and elevation plus other details from your city location.

Track the satellite on the map from your city or location and see movement details for azimuth, elevation, latitude, longitude, range, height, and movement on the map or in text.







IsCatalogInMostPopularTable: catalog: 46596, numindb: 2
Update: records affected: 1



GetName: 46596 FLOCK 4V-21

Hit Count: updated at: Sat, 31 Oct 2020 09:53:35 GMT